Find Globalstar M063

NORAD ID: 26081 Int'l Des: 2000-008 Owner: GLOBT Country: US Constellation: globalstar operational
LEOCIRCULAR

Current View

Loading 3D Globe...

About Globalstar M063

Description loading...

Upcoming Passes

Passes for default location (London). Set your location on the main map for personalized predictions.

Altitude History

Loading altitude history...

Two-Line Element Set

1 26081U 00008A 26149.49748196 -.00000080 00000-0 41363-4 0 9995
2 26081 51.9961 279.5011 0004228 248.0212 187.7285 11.86184325198678
Epoch: May 29, 2026 • Age: 14 hours

Current Status

Altitude 1748.7 km
Velocity 7.00 km/s
Sub-Earth Point -21.29°S, 9.98°W
Launch Date Feb 8, 2000
Age 26.3 years
Type communications

Technical Details

Classification Payload
Mass 450.00 kg
Dry Mass 380.00 kg
Total Mass 450.00 kg
Length 1.50 m
Diameter 0.60 m
Span 12.00 m
Shape Box + 2 Pan
Manufacturer LOR
Bus Type LS-400
Phase Status In Orbit
Owner/State GLOBT/US

Most Searched